Regional Weather Roundup
Issued by NWS Goodland, KS

Home | Current Version | Previous Version | Graphics & Text | Print | Product List | Glossary On
Versions: 1 2 3 4 5 6 7 8 9 10 11 12 13 14 15 16 17 18 19 20 21 22 23 24 25 26 27 28 29 30 31 32 33 34 35 36 37 38 39 40 41 42 43 44 45 46 47 48 49 50
327
ASUS43 KGLD 270359
RWRGLD

GOODLAND FORECAST AREA HOURLY WEATHER ROUNDUP
NATIONAL WEATHER SERVICE GOODLAND KS
1000 PM MDT SAT MAY 26 2018

...OFFICIAL OBSERVATIONS...

CITY           SKY/WX    TMP DP  RH WIND       PRES   REMARKS
GOODLAND KS    CLOUDY    75  46  35 S17       29.84R
HILL CITY KS   CLEAR     78  54  43 S12G21    29.83R
IMPERIAL NEB   CLOUDY    77  46  33 SE15      29.81R
MCCOOK NEB     MOCLDY    79  52  38 S13G22    29.81R
AKRON CO       CLOUDY    74  44  34 SE24G35   29.82R
BURLINGTON CO  CLOUDY    74  45  35 SE18G26   29.87R
LIMON CO       CLOUDY    70  35  27 SE14      29.89R
$$

...UNOFFICIAL OBSERVATIONS...

CITY           SKY/WX    TMP DP  RH WIND       PRES   REMARKS
NORTON KS      CLEAR     77  52  41 SE7       29.82
KIT CARSON CO    N/A     78  46  32 MISG        N/A
YUMA CO        FAIR      73  14  10 SE20      29.82R
$$




USA.gov is the U.S. government's official web portal to all federal, state and local government web resources and services.